Location: Ciserano
(45.5833°N, 9.6000°E)
Time: 03:47:28
(UTC+00:00)

SKYMED 2 - Pass Details

Date: 29 November 2020
Orbit: 621 x 623 km, 97.9° (Epoch: 24 January)

Event Time Altitude Azimuth Distance (km) Brightness Sun altitude
Rises 04:12:14 0° 156° (SSE) 2,890 7.4 -25.1°
Reaches altitude 10° 04:14:25 10° 153° (SSE) 1,988 6.5 -24.7°
Maximum altitude 04:18:41 61° 74° (ENE) 710 4.0 -24.0°
Enters shadow 04:21:03 25° 1° (N) 1,254 5.0 -23.6°
